Content
SEND FEEDBACK

Daily
Averages
Monthly
Summary
United States of America

MANGILAO, GUAM


Home > North America > United States > Guam
Elevation: 60 feet     Latitude: 13 27N     Longitude: 144 49E

WEATHER
 
SELECT A DAY
Number of Records: 354,252;   Date Range: 1/1/95 - 11/21/14
 
SHARE

PRINT THIS DATA

[ ← Previous Day ]
WEATHER ALMANAC - JUNE 15, 2013
[ Next Day → ]
[ °C ]   °F
Weather ElementAverageHighLow
Temperature82.3 °F86.4 °F (11:55 am)78.8 °F (3:58 am)
Dewpoint76.9 °F78.8 °F (7:33 am)74.7 °F (7:55 pm)
Humidity84 %94 % (3:58 am)74 % (12:18 pm)
Barometer29.79 in29.84 in (9:55 pm)29.76 in (3:55 pm)
Wind Speed11.9 mph16.1 mph (2:36 pm)
Wind Gust19.6 mph (5:22 am)
Weather ElementAverage
Visibility9.9 mi
Wind DirectionE (84.9 °)

Weather ElementTotal
Precipitation0.04 in
Cooling Degree Days17.6 (Base 65)
Growing Degree Days32.6 (Base 50)
Averaged from 71 records on June 15, 2013
WEATHER CONDITIONS BREAKOUT
WIND DIRECTION BREAKOUT
WEATHER BY HOUR - JUNE 15, 2013
[ °C ]   °F
Local TimeTemperatureDewpointHumidityBarometerVisibilityWind DirectionWind SpeedGust SpeedPrecipitationEventsConditions
12:54 AM80.6 °F77.0 °F89 %29.80 in10.0 miEast (90°)9.2 mphScattered Clouds
12:55 AM79.9 °F77.2 °F91 %29.80 in10.0 miEast (90°)9.2 mphScattered Clouds
1:11 AM80.6 °F77.0 °F89 %29.79 in10.0 miEast (100°)9.2 mphMostly Cloudy
1:18 AM80.6 °F77.0 °F89 %29.79 in10.0 miEast (100°)10.4 mphScattered Clouds
1:55 AM80.1 °F77.2 °F91 %29.79 in10.0 miEast (90°)9.2 mphScattered Clouds
1:57 AM80.6 °F77.0 °F89 %29.78 in10.0 miEast (90°)9.2 mphMostly Cloudy
2:03 AM80.6 °F77.0 °F89 %29.78 in10.0 miEast (90°)10.4 mphMostly Cloudy
2:09 AM80.6 °F77.0 °F89 %29.78 in10.0 miEast (90°)11.5 mphScattered Clouds
2:10 AM80.6 °F77.0 °F89 %29.78 in10.0 miEast (90°)11.5 mphMostly Cloudy
2:13 AM80.6 °F77.0 °F89 %29.78 in10.0 miEast (80°)12.7 mphMostly Cloudy
2:14 AM80.6 °F77.0 °F89 %29.78 in10.0 miEast (80°)13.8 mphMostly Cloudy
2:21 AM80.6 °F77.0 °F89 %29.78 in10.0 miEast (90°)10.4 mphScattered Clouds
2:53 AM80.6 °F77.0 °F89 %29.78 in10.0 miEast (80°)6.9 mphMostly Cloudy
2:55 AM79.9 °F77.2 °F91 %29.78 in10.0 miEast (80°)9.2 mphMostly Cloudy
3:22 AM80.6 °F77.0 °F89 %29.78 in10.0 miEast (90°)8.1 mphMostly Cloudy
3:33 AM80.6 °F77.0 °F89 %29.78 in10.0 miEast (90°)10.4 mphMostly Cloudy
3:49 AM80.6 °F77.0 °F89 %29.78 in10.0 miSE (130°)10.4 mphLight Drizzle
3:55 AM79.3 °F77.2 °F93 %29.78 in10.0 miEast (100°)9.2 mph0.00 inLight Drizzle
3:58 AM78.8 °F77.0 °F94 %29.78 in10.0 miEast (100°)9.2 mphScattered Clouds
4:54 AM80.6 °F77.0 °F89 %29.78 in10.0 miEast (90°)11.5 mphMostly Cloudy
4:55 AM79.9 °F77.4 °F92 %29.78 in10.0 miEast (90°)10.4 mph0.00 inMostly Cloudy
4:57 AM80.6 °F77.0 °F89 %29.78 in10.0 miEast (80°)11.5 mphScattered Clouds
5:00 AM80.6 °F77.0 °F89 %29.78 in10.0 miEast (80°)10.4 mphMostly Cloudy
5:03 AM80.6 °F77.0 °F89 %29.78 in10.0 miEast (90°)11.5 mphScattered Clouds
5:22 AM78.8 °F77.0 °F94 %29.78 in5.0 miEast (80°)13.8 mph19.6 mphRainHeavy Rain
5:33 AM78.8 °F77.0 °F94 %29.79 in8.0 miEast (90°)12.7 mph17.3 mphScattered Clouds
5:55 AM79.2 °F76.5 °F91 %29.79 in10.0 miEast (90°)11.5 mph0.04 inClear
6:34 AM80.6 °F77.0 °F89 %29.81 in10.0 miEast (90°)11.5 mphMostly Cloudy
6:36 AM80.6 °F77.0 °F89 %29.81 in10.0 miEast (90°)9.2 mphScattered Clouds
6:55 AM80.4 °F77.2 °F90 %29.81 in10.0 miEast (80°)12.7 mphScattered Clouds
7:33 AM82.4 °F78.8 °F89 %29.82 in10.0 miENE (70°)12.7 mph19.6 mphMostly Cloudy
7:41 AM82.4 °F77.0 °F84 %29.82 in10.0 miEast (90°)13.8 mph19.6 mphScattered Clouds
7:55 AM82.2 °F77.7 °F86 %29.82 in10.0 miEast (80°)11.5 mphScattered Clouds
8:45 AM82.4 °F77.0 °F84 %29.82 in10.0 miEast (90°)12.7 mphMostly Cloudy
8:55 AM82.9 °F77.5 °F84 %29.82 in10.0 miEast (80°)13.8 mphMostly Cloudy
9:09 AM82.4 °F78.8 °F89 %29.83 in10.0 miEast (90°)8.1 mphOvercast
9:22 AM84.2 °F77.0 °F79 %29.82 in10.0 miEast (90°)13.8 mphScattered Clouds
9:55 AM84.6 °F78.1 °F81 %29.82 in10.0 miEast (90°)10.4 mphScattered Clouds
9:58 AM84.2 °F78.8 °F84 %29.82 in10.0 miEast (100°)11.5 mphMostly Cloudy
10:42 AM84.2 °F77.0 °F79 %29.81 in10.0 miEast (90°)15.0 mphScattered Clouds
10:55 AM85.6 °F77.7 °F77 %29.81 in10.0 miEast (80°)15.0 mphPartly Cloudy
11:55 AM86.4 °F77.7 °F75 %29.80 in10.0 miEast (90°)12.7 mphScattered Clouds
12:18 PM86.0 °F77.0 °F74 %29.80 in10.0 miEast (80°)13.8 mphMostly Cloudy
12:55 PM85.5 °F77.4 °F77 %29.79 in10.0 miEast (100°)12.7 mphMostly Cloudy
1:07 PM86.0 °F77.0 °F74 %29.79 in10.0 miEast (80°)13.8 mphScattered Clouds
1:36 PM86.0 °F77.0 °F74 %29.79 in10.0 miEast (80°)15.0 mphMostly Cloudy
1:55 PM85.3 °F76.5 °F75 %29.78 in10.0 miEast (90°)15.0 mph18.4 mphMostly Cloudy
2:31 PM86.0 °F78.8 °F79 %29.78 in10.0 miENE (70°)13.8 mphMostly Cloudy
2:32 PM86.0 °F77.0 °F74 %29.77 in10.0 miEast (80°)13.8 mphScattered Clouds
2:33 PM86.0 °F77.0 °F74 %29.78 in10.0 miEast (80°)13.8 mph19.6 mphMostly Cloudy
2:36 PM86.0 °F78.8 °F79 %29.78 in10.0 miENE (70°)16.1 mphRainLight Rain
2:43 PM84.2 °F75.2 °F74 %29.78 in10.0 miEast (90°)10.4 mphRainLight Rain
2:50 PM84.2 °F77.0 °F79 %29.77 in10.0 miEast (90°)9.2 mphScattered Clouds
2:53 PM86.0 °F77.0 °F74 %29.77 in10.0 miENE (70°)13.8 mphMostly Cloudy
2:55 PM85.5 °F77.5 °F77 %29.77 in10.0 miEast (80°)16.1 mph0.00 inMostly Cloudy
3:01 PM86.0 °F77.0 °F74 %29.77 in10.0 miENE (70°)16.1 mphMostly Cloudy
3:14 PM86.0 °F77.0 °F74 %29.77 in10.0 miEast (80°)13.8 mphMostly Cloudy
3:17 PM86.0 °F77.0 °F74 %29.77 in10.0 miENE (70°)13.8 mphScattered Clouds
3:55 PM86.0 °F76.8 °F74 %29.76 in10.0 miEast (90°)12.7 mphPartly Cloudy
4:12 PM86.0 °F77.0 °F74 %29.77 in10.0 miENE (70°)13.8 mphMostly Cloudy
4:22 PM86.0 °F77.0 °F74 %29.76 in10.0 miENE (70°)15.0 mphScattered Clouds
4:55 PM84.4 °F75.4 °F74 %29.77 in10.0 miEast (90°)12.7 mphPartly Cloudy
5:55 PM82.4 °F75.2 °F79 %29.78 in10.0 miEast (80°)10.4 mphPartly Cloudy
6:55 PM81.0 °F75.2 °F83 %29.79 in10.0 miEast (80°)11.5 mphPartly Cloudy
7:55 PM80.2 °F74.7 °F83 %29.82 in10.0 miENE (70°)13.8 mphClear
8:55 PM80.1 °F75.2 °F85 %29.83 in10.0 miENE (70°)11.5 mphPartly Cloudy
9:55 PM79.7 °F75.0 °F86 %29.84 in10.0 miEast (80°)11.5 mphPartly Cloudy
10:55 PM80.1 °F75.9 °F87 %29.84 in10.0 miEast (80°)9.2 mphScattered Clouds
11:51 PM78.8 °F75.2 °F89 %29.83 in10.0 miENE (70°)10.4 mphMostly Cloudy
11:55 PM79.5 °F75.4 °F87 %29.83 in10.0 miEast (80°)11.5 mphMostly Cloudy
11:59 PM78.8 °F75.2 °F89 %29.83 in10.0 miEast (80°)10.4 mphScattered Clouds
Hourly data recorded from PGUA, located miles away from Mangilao, Guam







STORIES FROM OUR PARTNERS